User: anonymous   Login
Location: Unspecified
(0.0000°N, 0.0000°E)
Time: 21:31:19
(UTC+00:00)
Language:

Vanguard 1 - Orbit

View from above orbital plane
View from above orbital plane
View from above satellite
View from above satellite

Ground track
Ground track

The orbit data is extracted from the following two-line orbital elements,

1     5U 58002B   18292.19524356 -.00000082  00000-0 -96609-4 0  9993
2     5  34.2461 298.7336 1846548 140.0021 235.2308 10.84809952139405
Epoch (UTC): 19 October 2018 04:41:09
Eccentricity: 0.1846548
inclination: 34.2461°
perigee height: 650 km
apogee height: 3833 km
right ascension of ascending node: 298.7336°
argument of perigee: 140.0021°
revolutions per day: 10.84809952
mean anomaly at epoch: 235.2308°
orbit number at epoch: 13940

The dashed part of the orbit path shows where the satellite is in the earth's shadow,  

DLR